| time (UTC) | temp C | wind direction | speed KPH | gust KPH | rain 1hr cm | rain 24hr cm | rain mn cm | humidity % | barometer mb |
| 20260505101926 | 14 | 76 | 24.1 | 22.5 | 0.00 | 0.20 | 0.00 | 63 | 993.6 |
| 20260505101357 | 13 | 127 | 16.1 | 16.1 | 0.00 | 0.20 | 0.00 | 63 | 993.8 |
| 20260505100856 | 13 | 228 | 24.1 | 16.1 | 0.00 | 0.20 | 0.00 | 63 | 993.8 |
| 20260505095859 | 13 | 167 | 22.5 | 20.9 | 0.00 | 0.20 | 0.00 | 63 | 993.9 |
| 20260505095356 | 13 | 98 | 16.1 | 14.5 | 0.00 | 0.20 | 0.00 | 63 | 993.9 |
| 20260505094826 | 13 | 98 | 22.5 | 20.9 | 0.00 | 0.20 | 0.00 | 63 | 994.1 |
| 20260505094326 | 13 | 156 | 19.3 | 19.3 | 0.00 | 0.20 | 0.00 | 63 | 994.1 |
| 20260505093827 | 13 | 112 | 22.5 | 20.9 | 0.00 | 0.20 | 0.00 | 63 | 994.1 |
| 20260505093328 | 13 | 112 | 32.2 | 20.9 | 0.00 | 0.20 | 0.00 | 63 | 994.1 |
| 20260505092825 | 13 | 104 | 25.7 | 19.3 | 0.00 | 0.20 | 0.00 | 63 | 994.2 |
| 20260505092258 | 13 | 118 | 16.1 | 8.0 | 0.00 | 0.20 | 0.00 | 63 | 994.2 |
| 20260505091756 | 13 | 185 | 12.9 | 20.9 | 0.00 | 0.20 | 0.00 | 63 | 994.2 |
| 20260505091227 | 13 | 139 | 22.5 | 24.1 | 0.00 | 0.20 | 0.00 | 63 | 994.1 |
| 20260505090726 | 13 | 117 | 19.3 | 27.4 | 0.00 | 0.20 | 0.00 | 63 | 994.1 |
| 20260505090228 | 13 | 162 | 25.7 | 24.1 | 0.00 | 0.20 | 0.00 | 63 | 994.2 |
| 20260505085725 | 13 | 119 | 16.1 | 12.9 | 0.00 | 0.20 | 0.00 | 63 | 994.2 |
| 20260505085230 | 13 | 70 | 8.0 | 16.1 | 0.00 | 0.20 | 0.00 | 63 | 994.2 |
| 20260505084655 | 13 | 168 | 16.1 | 14.5 | 0.00 | 0.20 | 0.00 | 64 | 994.2 |
| 20260505084126 | 13 | 118 | 12.9 | 16.1 | 0.00 | 0.20 | 0.00 | 64 | 994.2 |
| 20260505083625 | 13 | 134 | 22.5 | 12.9 | 0.00 | 0.20 | 0.00 | 64 | 994.3 |
| 20260505083058 | 13 | 172 | 25.7 | 20.9 | 0.00 | 0.20 | 0.00 | 64 | 994.3 |
| 20260505082525 | 13 | 135 | 20.9 | 16.1 | 0.00 | 0.20 | 0.00 | 64 | 994.1 |
| 20260505081957 | 13 | 133 | 14.5 | 16.1 | 0.00 | 0.20 | 0.00 | 64 | 994.1 |
| 20260505081427 | 13 | 158 | 16.1 | 11.3 | 0.00 | 0.20 | 0.00 | 64 | 994.1 |
| 20260505080926 | 13 | 110 | 16.1 | 12.9 | 0.00 | 0.20 | 0.00 | 64 | 994.1 |
| 20260505080356 | 13 | 130 | 19.3 | 14.5 | 0.00 | 0.20 | 0.00 | 64 | 994.2 |
| 20260505075856 | 13 | 107 | 25.7 | 19.3 | 0.00 | 0.20 | 0.00 | 64 | 994.2 |
| 20260505075328 | 13 | 238 | 16.1 | 14.5 | 0.00 | 0.20 | 0.00 | 64 | 994.2 |
| 20260505074825 | 13 | 101 | 24.1 | 20.9 | 0.00 | 0.20 | 0.00 | 64 | 994.2 |
| 20260505074328 | 13 | 112 | 22.5 | 16.1 | 0.00 | 0.20 | 0.00 | 64 | 994.2 |
| 20260505073756 | 13 | 123 | 20.9 | 14.5 | 0.00 | 0.20 | 0.00 | 64 | 994.3 |
| 20260505073255 | 13 | 13 | 19.3 | 16.1 | 0.00 | 0.20 | 0.00 | 64 | 994.3 |
| 20260505072803 | 13 | 126 | 14.5 | 12.9 | 0.00 | 0.20 | 0.00 | 64 | 994.4 |
| 20260505072226 | 13 | 112 | 19.3 | 19.3 | 0.00 | 0.20 | 0.00 | 64 | 994.4 |
| 20260505071656 | 13 | 240 | 12.9 | 12.9 | 0.00 | 0.20 | 0.00 | 64 | 994.4 |
| 20260505071200 | 13 | 120 | 14.5 | 12.9 | 0.00 | 0.20 | 0.00 | 64 | 994.4 |
| 20260505070656 | 13 | 98 | 22.5 | 20.9 | 0.00 | 0.20 | 0.00 | 64 | 994.4 |
| 20260505070129 | 13 | 112 | 16.1 | 12.9 | 0.00 | 0.20 | 0.00 | 64 | 994.4 |
| 20260505065626 | 13 | 26 | 12.9 | 11.3 | 0.00 | 0.20 | 0.00 | 63 | 994.4 |
| 20260505065128 | 13 | 113 | 16.1 | 16.1 | 0.00 | 0.20 | 0.00 | 63 | 994.4 |
| 20260505064557 | 13 | 94 | 11.3 | 12.9 | 0.00 | 0.20 | 0.00 | 63 | 994.4 |
| 20260505064056 | 13 | 95 | 14.5 | 16.1 | 0.00 | 0.20 | 0.00 | 63 | 994.4 |
| 20260505063557 | 13 | 248 | 16.1 | 22.5 | 0.00 | 0.20 | 0.00 | 63 | 994.4 |
| 20260505063028 | 13 | 78 | 12.9 | 12.9 | 0.00 | 0.20 | 0.00 | 63 | 994.4 |
| 20260505062528 | 13 | 193 | 16.1 | 12.9 | 0.00 | 0.20 | 0.00 | 63 | 994.4 |
| 20260505061956 | 13 | 126 | 19.3 | 12.9 | 0.00 | 0.20 | 0.00 | 62 | 994.4 |
| 20260505061458 | 13 | 124 | 20.9 | 14.5 | 0.00 | 0.20 | 0.00 | 62 | 994.5 |
| 20260505060928 | 13 | 180 | 14.5 | 14.5 | 0.00 | 0.20 | 0.00 | 62 | 994.5 |
| 20260505060426 | 13 | 155 | 12.9 | 12.9 | 0.00 | 0.20 | 0.00 | 62 | 994.6 |
| 20260505055855 | 13 | 176 | 14.5 | 9.7 | 0.00 | 0.20 | 0.00 | 62 | 994.6 |
| 20260505055356 | 13 | 134 | 16.1 | 16.1 | 0.00 | 0.20 | 0.00 | 62 | 994.6 |
| 20260505054857 | 13 | 241 | 11.3 | 8.0 | 0.00 | 0.20 | 0.00 | 62 | 994.6 |
| 20260505054326 | 13 | 130 | 16.1 | 11.3 | 0.00 | 0.20 | 0.00 | 62 | 994.6 |
| 20260505053827 | 13 | 110 | 16.1 | 14.5 | 0.00 | 0.20 | 0.00 | 62 | 994.7 |
| 20260505053325 | 13 | 120 | 16.1 | 14.5 | 0.00 | 0.20 | 0.00 | 62 | 994.7 |
| 20260505052756 | 13 | 135 | 14.5 | 11.3 | 0.00 | 0.20 | 0.00 | 62 | 994.7 |
| 20260505052227 | 13 | 106 | 16.1 | 14.5 | 0.00 | 0.20 | 0.00 | 62 | 994.7 |
| 20260505051656 | 13 | 141 | 14.5 | 16.1 | 0.00 | 0.20 | 0.00 | 62 | 994.8 |
| 20260505051157 | 13 | 127 | 12.9 | 8.0 | 0.00 | 0.20 | 0.00 | 63 | 994.8 |
| 20260505050658 | 13 | 123 | 14.5 | 14.5 | 0.00 | 0.20 | 0.00 | 63 | 994.8 |
| 20260505050125 | 13 | 115 | 12.9 | 9.7 | 0.00 | 0.20 | 0.00 | 63 | 995.0 |
| 20260505041325 | 13 | 127 | 19.3 | 12.9 | 0.00 | 0.20 | 0.00 | 65 | 995.3 |
| 20260505040825 | 13 | 112 | 16.1 | 12.9 | 0.00 | 0.20 | 0.00 | 65 | 995.3 |
| 20260505040255 | 13 | 165 | 14.5 | 12.9 | 0.00 | 0.20 | 0.00 | 65 | 995.2 |
| 20260505035756 | 13 | 155 | 14.5 | 9.7 | 0.00 | 0.20 | 0.20 | 65 | 995.2 |
| 20260505035256 | 13 | 112 | 11.3 | 8.0 | 0.00 | 0.20 | 0.20 | 65 | 995.3 |
| 20260505034727 | 13 | 112 | 9.7 | 8.0 | 0.00 | 0.20 | 0.20 | 65 | 995.3 |
| 20260505034225 | 13 | 123 | 12.9 | 9.7 | 0.00 | 0.20 | 0.20 | 65 | 995.3 |
| 20260505033656 | 13 | 81 | 14.5 | 12.9 | 0.00 | 0.20 | 0.20 | 65 | 995.3 |
| 20260505033126 | 13 | 100 | 9.7 | 8.0 | 0.00 | 0.20 | 0.20 | 65 | 995.3 |
| 20260505032555 | 13 | 85 | 14.5 | 9.7 | 0.00 | 0.20 | 0.20 | 65 | 995.4 |
| 20260505032055 | 13 | 112 | 12.9 | 9.7 | 0.00 | 0.20 | 0.20 | 65 | 995.4 |
| 20260505031556 | 13 | 112 | 11.3 | 9.7 | 0.00 | 0.20 | 0.20 | 65 | 995.5 |
| 20260505031059 | 13 | 86 | 11.3 | 8.0 | 0.00 | 0.20 | 0.20 | 65 | 995.5 |
| 20260505030556 | 13 | 112 | 16.1 | 12.9 | 0.00 | 0.20 | 0.20 | 65 | 995.5 |
| 20260505030056 | 13 | 112 | 14.5 | 11.3 | 0.00 | 0.20 | 0.20 | 65 | 995.4 |
| 20260505025525 | 13 | 133 | 9.7 | 8.0 | 0.00 | 0.20 | 0.20 | 65 | 995.4 |
| 20260505025025 | 13 | 112 | 12.9 | 11.3 | 0.00 | 0.20 | 0.20 | 65 | 995.5 |
| 20260505024455 | 13 | 106 | 9.7 | 8.0 | 0.00 | 0.20 | 0.20 | 65 | 995.5 |
| 20260505023925 | 13 | 100 | 12.9 | 14.5 | 0.00 | 0.20 | 0.20 | 65 | 995.5 |
| 20260505023426 | 13 | 112 | 14.5 | 11.3 | 0.00 | 0.20 | 0.20 | 65 | 995.5 |
| 20260505022925 | 13 | 112 | 12.9 | 9.7 | 0.00 | 0.20 | 0.20 | 65 | 995.5 |
| 20260505022355 | 14 | 101 | 12.9 | 11.3 | 0.00 | 0.20 | 0.20 | 65 | 995.7 |
| 20260505021826 | 14 | 102 | 9.7 | 8.0 | 0.00 | 0.20 | 0.20 | 65 | 995.7 |
| 20260505021326 | 14 | 117 | 14.5 | 12.9 | 0.00 | 0.20 | 0.20 | 64 | 995.8 |
| 20260505020825 | 14 | 99 | 12.9 | 9.7 | 0.00 | 0.20 | 0.20 | 64 | 995.8 |
| 20260505020256 | 14 | 86 | 11.3 | 8.0 | 0.00 | 0.20 | 0.20 | 65 | 995.9 |
| 20260505015725 | 14 | 110 | 12.9 | 8.0 | 0.00 | 0.20 | 0.20 | 65 | 995.9 |
| 20260505015225 | 14 | 101 | 14.5 | 12.9 | 0.00 | 0.20 | 0.20 | 65 | 995.9 |
| 20260505014659 | 14 | 104 | 14.5 | 12.9 | 0.00 | 0.20 | 0.20 | 64 | 995.9 |
| 20260505014157 | 14 | 112 | 12.9 | 8.0 | 0.00 | 0.20 | 0.20 | 64 | 995.9 |
| 20260505013655 | 14 | 112 | 12.9 | 8.0 | 0.00 | 0.20 | 0.20 | 64 | 995.9 |
| 20260505013126 | 14 | 113 | 12.9 | 11.3 | 0.00 | 0.20 | 0.20 | 64 | 995.9 |
| 20260505012624 | 14 | 55 | 11.3 | 12.9 | 0.00 | 0.20 | 0.20 | 64 | 996.0 |
| 20260505012056 | 14 | 112 | 8.0 | 9.7 | 0.00 | 0.20 | 0.20 | 64 | 996.0 |
| 20260505011524 | 14 | 70 | 9.7 | 12.9 | 0.00 | 0.20 | 0.20 | 64 | 996.1 |
| 20260505011026 | 14 | 112 | 14.5 | 11.3 | 0.00 | 0.20 | 0.20 | 65 | 996.1 |
| 20260505010529 | 14 | 119 | 12.9 | 8.0 | 0.00 | 0.20 | 0.20 | 65 | 996.1 |
| 20260505005958 | 14 | 94 | 14.5 | 12.9 | 0.00 | 0.20 | 0.20 | 65 | 996.1 |
| 20260505005455 | 14 | 122 | 11.3 | 12.9 | 0.00 | 0.20 | 0.20 | 65 | 996.1 |
| 20260505004926 | 14 | 104 | 9.7 | 4.8 | 0.00 | 0.20 | 0.20 | 65 | 995.8 |
| 20260505004430 | 14 | 106 | 9.7 | 8.0 | 0.00 | 0.20 | 0.20 | 65 | 995.8 |
| 20260505003927 | 14 | 119 | 11.3 | 9.7 | 0.00 | 0.20 | 0.20 | 64 | 995.9 |
| 20260505003425 | 15 | 80 | 3.2 | 8.0 | 0.00 | 0.20 | 0.20 | 64 | 995.9 |
| 20260505002856 | 15 | 92 | 9.7 | 9.7 | 0.00 | 0.20 | 0.20 | 64 | 996.0 |
| 20260505002355 | 15 | 77 | 12.9 | 9.7 | 0.00 | 0.20 | 0.20 | 64 | 996.0 |
| 20260505001856 | 15 | 112 | 0.0 | 8.0 | 0.00 | 0.20 | 0.20 | 63 | 996.0 |
| 20260505001356 | 15 | 97 | 9.7 | 8.0 | 0.00 | 0.20 | 0.20 | 63 | 995.8 |
| 20260505000854 | 15 | 106 | 8.0 | 9.7 | 0.00 | 0.20 | 0.20 | 63 | 995.8 |
| 20260505000358 | 15 | 94 | 11.3 | 14.5 | 0.00 | 0.20 | 0.20 | 63 | 995.8 |
| 20260504235854 | 15 | 92 | 11.3 | 8.0 | 0.00 | 0.20 | 0.20 | 62 | 995.8 |
| 20260504235324 | 15 | 112 | 8.0 | 8.0 | 0.00 | 0.20 | 0.20 | 62 | 995.8 |
| 20260504234754 | 15 | 118 | 19.3 | 14.5 | 0.00 | 0.20 | 0.20 | 61 | 995.6 |
| 20260504234301 | 16 | 126 | 11.3 | 11.3 | 0.00 | 0.20 | 0.20 | 61 | 995.6 |
| 20260504233254 | 16 | 124 | 14.5 | 9.7 | 0.00 | 0.20 | 0.20 | 61 | 995.6 |
| 20260504232754 | 16 | 124 | 12.9 | 9.7 | 0.00 | 0.20 | 0.20 | 61 | 995.7 |
| 20260504232225 | 16 | 112 | 12.9 | 11.3 | 0.00 | 0.20 | 0.20 | 60 | 995.7 |
| 20260504231727 | 16 | 107 | 19.3 | 16.1 | 0.00 | 0.20 | 0.20 | 60 | 995.7 |
| 20260504231225 | 16 | 104 | 16.1 | 11.3 | 0.00 | 0.20 | 0.20 | 60 | 995.9 |
| 20260504230726 | 16 | 120 | 14.5 | 12.9 | 0.00 | 0.20 | 0.20 | 60 | 995.9 |
| 20260504230155 | 16 | 169 | 14.5 | 9.7 | 0.00 | 0.20 | 0.20 | 59 | 995.9 |
| 20260504225655 | 16 | 113 | 19.3 | 14.5 | 0.00 | 0.20 | 0.20 | 58 | 995.9 |
| 20260504225157 | 16 | 142 | 16.1 | 12.9 | 0.00 | 0.20 | 0.20 | 58 | 995.9 |
| 20260504224626 | 16 | 110 | 16.1 | 16.1 | 0.00 | 0.20 | 0.20 | 58 | 995.9 |
| 20260504224126 | 17 | 112 | 22.5 | 12.9 | 0.00 | 0.20 | 0.20 | 58 | 995.9 |
| 20260504223625 | 17 | 147 | 11.3 | 9.7 | 0.00 | 0.20 | 0.20 | 58 | 995.9 |
| 20260504223054 | 17 | 190 | 12.9 | 11.3 | 0.00 | 0.20 | 0.20 | 58 | 995.9 |
| 20260504222556 | 17 | 102 | 24.1 | 22.5 | 0.00 | 0.20 | 0.20 | 58 | 995.9 |
| 20260504222100 | 17 | 182 | 14.5 | 9.7 | 0.00 | 0.20 | 0.20 | 58 | 995.9 |
| 20260504221526 | 17 | 325 | 3.2 | 11.3 | 0.00 | 0.20 | 0.20 | 58 | 995.9 |
| 20260504221028 | 17 | 180 | 9.7 | 14.5 | 0.00 | 0.20 | 0.20 | 58 | 995.9 |
| 20260504220525 | 17 | 91 | 11.3 | 12.9 | 0.00 | 0.20 | 0.20 | 58 | 995.9 |
| 20260504220027 | 17 | 39 | 9.7 | 4.8 | 0.00 | 0.20 | 0.20 | 58 | 995.8 |
| 20260504215524 | 17 | 90 | 20.9 | 16.1 | 0.00 | 0.20 | 0.20 | 57 | 995.8 |
| 20260504214955 | 17 | 133 | 20.9 | 22.5 | 0.00 | 0.20 | 0.20 | 57 | 995.8 |
| 20260504213426 | 18 | 62 | 12.9 | 16.1 | 0.00 | 0.20 | 0.20 | 55 | 995.8 |
| 20260504212854 | 18 | 167 | 12.9 | 11.3 | 0.00 | 0.20 | 0.20 | 53 | 995.8 |
| 20260504212354 | 19 | 152 | 9.7 | 12.9 | 0.00 | 0.20 | 0.20 | 52 | 995.8 |
| 20260504211854 | 20 | 270 | 37.0 | 32.2 | 0.00 | 0.20 | 0.20 | 49 | 995.8 |
| 20260504210826 | 19 | 144 | 11.3 | 11.3 | 0.00 | 0.20 | 0.20 | 52 | 995.8 |
| 20260504210325 | 19 | 145 | 19.3 | 14.5 | 0.00 | 0.20 | 0.20 | 52 | 995.9 |
| 20260504205755 | 18 | 57 | 12.9 | 8.0 | 0.00 | 0.20 | 0.20 | 53 | 995.9 |
| 20260504205224 | 19 | 174 | 19.3 | 16.1 | 0.00 | 0.20 | 0.20 | 53 | 996.0 |
| 20260504204659 | 18 | 196 | 11.3 | 12.9 | 0.00 | 0.20 | 0.20 | 53 | 996.0 |
| 20260504204155 | 18 | 66 | 19.3 | 14.5 | 0.00 | 0.20 | 0.20 | 54 | 996.0 |
| 20260504203655 | 18 | 221 | 12.9 | 11.3 | 0.00 | 0.20 | 0.20 | 54 | 996.0 |
| 20260504203125 | 18 | 217 | 11.3 | 9.7 | 0.00 | 0.20 | 0.20 | 54 | 996.0 |
| 20260504202624 | 18 | 227 | 14.5 | 16.1 | 0.00 | 0.20 | 0.20 | 54 | 996.2 |
| 20260504202125 | 18 | 212 | 12.9 | 11.3 | 0.00 | 0.20 | 0.20 | 54 | 996.2 |
| 20260504200526 | 18 | 267 | 12.9 | 12.9 | 0.00 | 0.20 | 0.20 | 55 | 996.2 |
| 20260504195955 | 17 | 150 | 8.0 | 4.8 | 0.00 | 0.20 | 0.20 | 56 | 996.4 |
| 20260504194855 | 17 | 207 | 12.9 | 12.9 | 0.00 | 0.20 | 0.20 | 56 | 996.6 |
| 20260504194326 | 17 | 234 | 14.5 | 12.9 | 0.00 | 0.20 | 0.20 | 56 | 996.6 |
| 20260504193826 | 17 | 258 | 35.4 | 25.7 | 0.00 | 0.20 | 0.20 | 56 | 996.6 |
| 20260504193325 | 17 | 225 | 20.9 | 12.9 | 0.00 | 0.20 | 0.20 | 56 | 996.6 |
| 20260504192754 | 17 | 248 | 16.1 | 14.5 | 0.00 | 0.20 | 0.20 | 56 | 996.7 |
| 20260504192257 | 17 | 245 | 25.7 | 20.9 | 0.00 | 0.20 | 0.20 | 56 | 996.7 |
| 20260504191733 | 17 | 285 | 22.5 | 22.5 | 0.00 | 0.20 | 0.20 | 56 | 996.7 |
| 20260504191154 | 17 | 251 | 25.7 | 24.1 | 0.00 | 0.20 | 0.20 | 56 | 997.0 |
| 20260504190654 | 17 | 201 | 9.7 | 12.9 | 0.00 | 0.20 | 0.20 | 58 | 997.0 |
| 20260504190127 | 17 | 188 | 14.5 | 9.7 | 0.00 | 0.20 | 0.20 | 57 | 997.3 |
| 20260504185626 | 16 | 202 | 16.1 | 12.9 | 0.00 | 0.20 | 0.20 | 59 | 997.3 |
| 20260504185128 | 16 | 199 | 12.9 | 12.9 | 0.00 | 0.20 | 0.20 | 58 | 997.4 |
| 20260504184624 | 16 | 225 | 35.4 | 22.5 | 0.00 | 0.20 | 0.20 | 59 | 997.4 |
| 20260504184125 | 16 | 185 | 22.5 | 11.3 | 0.00 | 0.20 | 0.20 | 59 | 997.4 |
| 20260504183625 | 16 | 119 | 19.3 | 14.5 | 0.00 | 0.20 | 0.20 | 59 | 997.4 |
| 20260504183055 | 15 | 147 | 14.5 | 14.5 | 0.00 | 0.20 | 0.20 | 61 | 997.4 |
| 20260504182554 | 15 | 220 | 19.3 | 16.1 | 0.00 | 0.20 | 0.20 | 62 | 997.4 |
| 20260504182024 | 15 | 165 | 19.3 | 14.5 | 0.00 | 0.20 | 0.20 | 62 | 997.4 |
| 20260504181528 | 15 | 166 | 12.9 | 11.3 | 0.00 | 0.20 | 0.20 | 62 | 997.6 |
| 20260504180956 | 14 | 217 | 22.5 | 16.1 | 0.00 | 0.20 | 0.20 | 63 | 997.6 |
| 20260504180454 | 15 | 340 | 14.5 | 12.9 | 0.00 | 0.20 | 0.20 | 63 | 997.7 |
| 20260504175358 | 15 | 238 | 16.1 | 9.7 | 0.00 | 0.20 | 0.20 | 64 | 997.7 |
| 20260504174326 | 15 | 215 | 22.5 | 22.5 | 0.00 | 0.20 | 0.20 | 62 | 997.8 |
| 20260504173830 | 15 | 250 | 29.0 | 25.7 | 0.00 | 0.20 | 0.20 | 64 | 997.9 |
| 20260504173327 | 14 | 214 | 24.1 | 19.3 | 0.00 | 0.20 | 0.20 | 65 | 997.9 |
| 20260504172754 | 15 | 156 | 16.1 | 12.9 | 0.00 | 0.20 | 0.20 | 65 | 997.9 |
| 20260504172254 | 14 | 106 | 19.3 | 12.9 | 0.00 | 0.20 | 0.20 | 66 | 997.9 |
| 20260504171756 | 14 | 122 | 20.9 | 12.9 | 0.00 | 0.20 | 0.20 | 65 | 997.9 |
| 20260504170654 | 14 | 232 | 19.3 | 20.9 | 0.00 | 0.20 | 0.20 | 65 | 997.9 |
| 20260504170125 | 15 | 235 | 20.9 | 16.1 | 0.00 | 0.20 | 0.20 | 66 | 997.8 |
| 20260504151027 | 10 | 291 | 8.0 | 4.8 | 0.00 | 0.20 | 0.20 | 88 | 997.9 |
| 20260504150524 | 10 | 244 | 4.8 | 8.0 | 0.00 | 0.20 | 0.20 | 89 | 997.9 |
| 20260504141257 | 9 | 210 | 14.5 | 12.9 | 0.00 | 0.20 | 0.20 | 90 | 997.7 |
| 20260504140753 | 9 | 245 | 19.3 | 16.1 | 0.00 | 0.20 | 0.20 | 90 | 997.7 |
| 20260504130557 | 8 | 224 | 19.3 | 22.5 | 0.08 | 0.20 | 0.20 | 94 | 997.2 |
| 20260504120253 | 7 | 2 | 8.0 | 8.0 | 0.10 | 0.10 | 0.10 | 93 | 997.0 |
| 20260504110428 | 6 | 112 | 14.5 | 9.7 | 0.00 | 0.00 | 0.00 | 91 | 997.2 |